Time,TemperatureF,DewpointF,PressureIn,WindDirection,WindDirectionDegrees,WindSpeedMPH,WindSpeedGustMPH,Humidity,HourlyPrecipIn,Conditions,Clouds,dailyrainin,SoftwareType,DateUTC
2013-06-27 00:03:00,67.3,57.6,30.06,West,270,1.8,1.8,71,0.00,,,0.00,WUHU216HW,2013-06-27 07:03:00,
2013-06-27 00:08:00,67.3,57.6,30.06,West,270,1.6,1.8,71,0.00,,,0.00,WUHU216HW,2013-06-27 07:08:00,
2013-06-27 00:13:00,67.1,57.8,30.07,West,270,1.3,1.6,72,0.00,,,0.00,WUHU216HW,2013-06-27 07:13:00,
2013-06-27 00:18:00,67.1,57.8,30.06,WSW,248,0.7,1.3,72,0.00,,,0.00,WUHU216HW,2013-06-27 07:18:00,
2013-06-27 00:23:00,67.1,57.8,30.06,WSW,248,0.7,1.3,72,0.00,,,0.00,WUHU216HW,2013-06-27 07:23:00,
2013-06-27 00:28:00,67.0,57.6,30.07,WSW,248,0.4,1.6,72,0.00,,,0.00,WUHU216HW,2013-06-27 07:28:00,
2013-06-27 00:33:00,67.0,58.1,30.06,WSW,248,0.4,1.6,73,0.00,,,0.00,WUHU216HW,2013-06-27 07:33:00,
2013-06-27 00:39:00,67.0,58.1,30.06,WSW,248,0.7,1.6,73,0.00,,,0.00,WUHU216HW,2013-06-27 07:39:00,
2013-06-27 00:44:00,67.0,58.1,30.06,West,270,1.6,1.6,73,0.00,,,0.00,WUHU216HW,2013-06-27 07:44:00,
2013-06-27 00:49:00,66.8,57.9,30.07,SW,225,0.4,1.6,73,0.00,,,0.00,WUHU216HW,2013-06-27 07:49:00,
2013-06-27 00:54:00,66.8,58.2,30.06,West,270,0.7,1.1,74,0.00,,,0.00,WUHU216HW,2013-06-27 07:54:00,
2013-06-27 00:59:00,66.6,58.1,30.05,WSW,248,1.3,1.3,74,0.00,,,0.00,WUHU216HW,2013-06-27 07:59:00,
2013-06-27 01:04:00,66.4,58.2,30.06,WSW,248,2.2,2.2,75,0.00,,,0.00,WUHU216HW,2013-06-27 08:04:00,
2013-06-27 01:09:00,66.2,58.1,30.06,WSW,248,1.6,2.2,75,0.00,,,0.00,WUHU216HW,2013-06-27 08:09:00,
2013-06-27 01:14:00,66.2,58.1,30.06,WSW,248,1.1,1.8,75,0.00,,,0.00,WUHU216HW,2013-06-27 08:14:00,
2013-06-27 01:19:00,65.9,58.1,30.04,WSW,248,0.4,1.8,76,0.00,,,0.00,WUHU216HW,2013-06-27 08:19:00,
2013-06-27 01:25:00,65.9,58.1,30.06,SW,225,0.4,1.8,76,0.00,,,0.00,WUHU216HW,2013-06-27 08:25:00,
2013-06-27 01:30:00,65.7,57.9,30.05,SW,225,1.8,1.8,76,0.00,,,0.00,WUHU216HW,2013-06-27 08:30:00,
2013-06-27 01:35:00,65.7,57.9,30.05,WSW,248,1.8,2.0,76,0.00,,,0.00,WUHU216HW,2013-06-27 08:35:00,
2013-06-27 01:40:00,65.7,58.3,30.06,WSW,248,2.5,2.5,77,0.00,,,0.00,WUHU216HW,2013-06-27 08:40:00,
2013-06-27 01:45:00,65.7,58.3,30.06,WSW,248,1.3,2.7,77,0.00,,,0.00,WUHU216HW,2013-06-27 08:45:00,
2013-06-27 01:50:00,65.5,58.2,30.05,WSW,248,1.3,2.7,77,0.00,,,0.00,WUHU216HW,2013-06-27 08:50:00,
2013-06-27 01:55:00,65.5,58.2,30.06,WSW,248,1.8,2.5,77,0.00,,,0.00,WUHU216HW,2013-06-27 08:55:00,
2013-06-27 02:00:00,65.5,58.2,30.05,West,270,2.2,3.1,77,0.00,,,0.00,WUHU216HW,2013-06-27 09:00:00,
2013-06-27 02:06:00,65.5,58.2,30.05,West,270,2.5,3.1,77,0.00,,,0.00,WUHU216HW,2013-06-27 09:06:00,
2013-06-27 02:11:00,65.3,58.3,30.05,West,270,2.5,2.7,78,0.00,,,0.00,WUHU216HW,2013-06-27 09:11:00,
2013-06-27 02:16:00,65.3,58.3,30.05,WSW,248,2.2,2.5,78,0.00,,,0.00,WUHU216HW,2013-06-27 09:16:00,
2013-06-27 02:21:00,65.2,58.2,30.04,WSW,248,2.0,2.5,78,0.00,,,0.00,WUHU216HW,2013-06-27 09:21:00,
2013-06-27 02:26:00,65.2,58.2,30.04,WSW,248,2.5,2.5,78,0.00,,,0.00,WUHU216HW,2013-06-27 09:26:00,
2013-06-27 02:31:00,65.2,58.5,30.04,West,270,2.5,2.5,79,0.00,,,0.00,WUHU216HW,2013-06-27 09:31:00,
2013-06-27 02:36:00,65.2,58.5,30.05,West,270,2.2,2.5,79,0.00,,,0.00,WUHU216HW,2013-06-27 09:36:00,
2013-06-27 02:41:00,65.2,58.5,30.04,West,270,1.8,2.5,79,0.00,,,0.00,WUHU216HW,2013-06-27 09:41:00,
2013-06-27 02:46:00,65.2,58.5,30.05,WSW,248,1.8,2.5,79,0.00,,,0.00,WUHU216HW,2013-06-27 09:46:00,
2013-06-27 02:51:00,65.2,58.5,30.05,WSW,248,0.9,2.2,79,0.00,,,0.00,WUHU216HW,2013-06-27 09:51:00,
2013-06-27 02:56:00,65.2,58.5,30.03,WSW,248,1.3,1.8,79,0.00,,,0.00,WUHU216HW,2013-06-27 09:56:00,
2013-06-27 03:01:00,65.2,58.5,30.04,WSW,248,2.5,2.5,79,0.00,,,0.00,WUHU216HW,2013-06-27 10:01:00,
2013-06-27 03:06:00,65.2,58.5,30.04,WSW,248,1.8,2.5,79,0.00,,,0.00,WUHU216HW,2013-06-27 10:06:00,
2013-06-27 03:11:00,65.2,58.5,30.03,WSW,248,1.8,2.0,79,0.00,,,0.00,WUHU216HW,2013-06-27 10:11:00,
2013-06-27 03:17:00,65.2,58.5,30.03,WSW,248,1.8,2.0,79,0.00,,,0.00,WUHU216HW,2013-06-27 10:17:00,
2013-06-27 03:22:00,65.2,58.5,30.03,WSW,248,1.8,1.8,79,0.00,,,0.00,WUHU216HW,2013-06-27 10:22:00,
2013-06-27 03:27:00,65.2,58.5,30.04,WSW,248,1.3,2.5,79,0.00,,,0.00,WUHU216HW,2013-06-27 10:27:00,
2013-06-27 03:32:00,65.2,58.5,30.04,WSW,248,1.6,2.5,79,0.00,,,0.00,WUHU216HW,2013-06-27 10:32:00,
2013-06-27 03:37:00,65.2,58.2,30.03,WSW,248,0.4,1.8,78,0.00,,,0.00,WUHU216HW,2013-06-27 10:37:00,
2013-06-27 03:42:00,65.3,58.3,30.04,WSW,248,0.0,1.8,78,0.00,,,0.00,WUHU216HW,2013-06-27 10:42:00,
2013-06-27 03:47:00,65.2,58.2,30.03,SW,225,0.9,1.1,78,0.00,,,0.00,WUHU216HW,2013-06-27 10:47:00,
2013-06-27 03:52:00,65.0,58.3,30.04,SW,225,1.1,1.3,79,0.00,,,0.00,WUHU216HW,2013-06-27 10:52:00,
2013-06-27 03:58:00,64.8,58.2,30.03,SW,225,0.9,1.3,79,0.00,,,0.00,WUHU216HW,2013-06-27 10:58:00,
2013-06-27 04:03:00,64.6,58.0,30.04,SW,225,1.1,1.3,79,0.00,,,0.00,WUHU216HW,2013-06-27 11:03:00,
2013-06-27 04:08:00,64.6,58.3,30.02,SW,225,1.1,1.6,80,0.00,,,0.00,WUHU216HW,2013-06-27 11:08:00,
2013-06-27 04:13:00,64.6,58.3,30.03,SW,225,0.4,1.6,80,0.00,,,0.00,WUHU216HW,2013-06-27 11:13:00,
2013-06-27 04:18:00,64.8,58.2,30.02,SW,225,1.1,1.1,79,0.00,,,0.00,WUHU216HW,2013-06-27 11:18:00,
2013-06-27 04:23:00,64.8,58.2,30.02,WSW,248,1.8,2.0,79,0.00,,,0.00,WUHU216HW,2013-06-27 11:23:00,
2013-06-27 04:28:00,64.8,58.2,30.02,WSW,248,0.2,2.0,79,0.00,,,0.00,WUHU216HW,2013-06-27 11:28:00,
2013-06-27 04:33:00,65.0,58.0,30.03,WSW,248,0.0,1.3,78,0.00,,,0.00,WUHU216HW,2013-06-27 11:33:00,
2013-06-27 04:38:00,65.0,58.0,30.04,WSW,248,0.0,0.0,78,0.00,,,0.00,WUHU216HW,2013-06-27 11:38:00,
2013-06-27 04:43:00,65.0,58.0,30.02,WSW,248,0.0,0.0,78,0.00,,,0.00,WUHU216HW,2013-06-27 11:43:00,
2013-06-27 04:48:00,64.8,57.8,30.03,WSW,248,1.6,1.8,78,0.00,,,0.00,WUHU216HW,2013-06-27 11:48:00,
2013-06-27 04:54:00,64.6,57.6,30.02,WSW,248,0.7,1.8,78,0.00,,,0.00,WUHU216HW,2013-06-27 11:54:00,
2013-06-27 04:59:00,64.4,57.4,30.02,WSW,248,0.7,1.8,78,0.00,,,0.00,WUHU216HW,2013-06-27 11:59:00,
2013-06-27 05:04:00,64.4,57.8,30.02,WSW,248,0.4,1.1,79,0.00,,,0.00,WUHU216HW,2013-06-27 12:04:00,
2013-06-27 05:09:00,64.3,57.6,30.04,WSW,248,0.0,0.7,79,0.00,,,0.00,WUHU216HW,2013-06-27 12:09:00,
2013-06-27 05:14:00,64.4,57.8,30.03,WSW,248,0.7,1.1,79,0.00,,,0.00,WUHU216HW,2013-06-27 12:14:00,
2013-06-27 05:19:00,64.3,57.6,30.03,WSW,248,1.1,1.1,79,0.00,,,0.00,WUHU216HW,2013-06-27 12:19:00,
2013-06-27 05:24:00,64.3,57.6,30.04,WSW,248,0.4,1.1,79,0.00,,,0.00,WUHU216HW,2013-06-27 12:24:00,
2013-06-27 05:29:00,64.1,57.8,30.03,WSW,248,0.9,1.1,80,0.00,,,0.00,WUHU216HW,2013-06-27 12:29:00,
2013-06-27 05:34:00,64.1,57.4,30.03,WSW,248,0.9,0.9,79,0.00,,,0.00,WUHU216HW,2013-06-27 12:34:00,
2013-06-27 05:39:00,64.1,57.8,30.03,SW,225,1.1,1.1,80,0.00,,,0.00,WUHU216HW,2013-06-27 12:39:00,
2013-06-27 05:44:00,64.3,58.0,30.03,SW,225,0.9,1.1,80,0.00,,,0.00,WUHU216HW,2013-06-27 12:44:00,
2013-06-27 05:50:00,64.4,57.8,30.03,SW,225,0.7,0.9,79,0.00,,,0.00,WUHU216HW,2013-06-27 12:50:00,
2013-06-27 05:55:00,64.4,57.8,30.04,SW,225,0.4,1.1,79,0.00,,,0.00,WUHU216HW,2013-06-27 12:55:00,
2013-06-27 06:00:00,64.4,57.8,30.04,SW,225,0.4,1.1,79,0.00,,,0.00,WUHU216HW,2013-06-27 13:00:00,
2013-06-27 06:05:00,64.4,57.8,30.03,SW,225,0.0,0.7,79,0.00,,,0.00,WUHU216HW,2013-06-27 13:05:00,
2013-06-27 06:10:00,64.4,58.1,30.04,SW,225,0.0,0.4,80,0.00,,,0.00,WUHU216HW,2013-06-27 13:10:00,
2013-06-27 06:15:00,64.6,58.3,30.04,SW,225,0.0,0.0,80,0.00,,,0.00,WUHU216HW,2013-06-27 13:15:00,
2013-06-27 06:20:00,64.8,58.5,30.05,SW,225,0.4,0.4,80,0.00,,,0.00,WUHU216HW,2013-06-27 13:20:00,
2013-06-27 06:25:00,65.0,58.3,30.04,SW,225,0.0,0.4,79,0.00,,,0.00,WUHU216HW,2013-06-27 13:25:00,
2013-06-27 06:30:00,65.2,58.5,30.03,SW,225,0.0,0.0,79,0.00,,,0.00,WUHU216HW,2013-06-27 13:30:00,
2013-06-27 06:35:00,65.3,58.7,30.04,SW,225,0.0,0.0,79,0.00,,,0.00,WUHU216HW,2013-06-27 13:35:00,
2013-06-27 06:40:00,65.5,58.9,30.05,SW,225,0.0,0.0,79,0.00,,,0.00,WUHU216HW,2013-06-27 13:40:00,
2013-06-27 06:45:00,65.5,58.9,30.04,North,0,1.1,1.6,79,0.00,,,0.00,WUHU216HW,2013-06-27 13:45:00,
2013-06-27 06:50:00,65.9,59.2,30.04,North,0,0.4,1.8,79,0.00,,,0.00,WUHU216HW,2013-06-27 13:50:00,
2013-06-27 06:55:00,65.9,59.2,30.04,NNE,23,0.0,1.8,79,0.00,,,0.00,WUHU216HW,2013-06-27 13:55:00,
2013-06-27 07:01:00,65.9,59.2,30.07,North,0,1.1,2.2,79,0.00,,,0.00,WUHU216HW,2013-06-27 14:01:00,
2013-06-27 07:06:00,66.2,59.6,30.06,North,0,0.9,2.2,79,0.00,,,0.00,WUHU216HW,2013-06-27 14:06:00,
2013-06-27 07:11:00,66.4,59.8,30.06,North,0,0.9,2.5,79,0.00,,,0.00,WUHU216HW,2013-06-27 14:11:00,
2013-06-27 07:16:00,66.6,59.6,30.06,WSW,248,0.0,2.5,78,0.00,,,0.00,WUHU216HW,2013-06-27 14:16:00,
2013-06-27 07:21:00,67.1,60.1,30.06,NE,45,1.1,1.1,78,0.00,,,0.00,WUHU216HW,2013-06-27 14:21:00,
2013-06-27 07:26:00,67.3,59.9,30.06,NNE,23,0.9,1.1,77,0.00,,,0.00,WUHU216HW,2013-06-27 14:26:00,
2013-06-27 07:31:00,67.9,60.4,30.06,NNE,23,1.3,1.3,77,0.00,,,0.00,WUHU216HW,2013-06-27 14:31:00,
2013-06-27 07:36:00,68.2,60.8,30.07,NE,45,0.9,1.3,77,0.00,,,0.00,WUHU216HW,2013-06-27 14:36:00,
2013-06-27 07:41:00,68.8,60.8,30.07,ENE,68,0.2,1.1,76,0.00,,,0.00,WUHU216HW,2013-06-27 14:41:00,
2013-06-27 07:47:00,69.5,61.1,30.06,NNE,23,0.9,1.6,75,0.00,,,0.00,WUHU216HW,2013-06-27 14:47:00,
2013-06-27 07:52:00,69.8,61.1,30.05,NE,45,0.4,2.2,74,0.00,,,0.00,WUHU216HW,2013-06-27 14:52:00,
2013-06-27 07:57:00,70.4,60.8,30.05,NE,45,2.5,3.4,72,0.00,,,0.00,WUHU216HW,2013-06-27 14:57:00,
2013-06-27 08:02:00,70.9,61.4,30.06,NNE,23,0.4,3.4,72,0.00,,,0.00,WUHU216HW,2013-06-27 15:02:00,
2013-06-27 08:07:00,71.3,61.4,30.07,NNE,23,3.4,3.4,71,0.00,,,0.00,WUHU216HW,2013-06-27 15:07:00,
2013-06-27 08:12:00,71.6,61.4,30.06,NNE,23,3.4,3.4,70,0.00,,,0.00,WUHU216HW,2013-06-27 15:12:00,
2013-06-27 08:17:00,72.0,61.7,30.06,NE,45,1.8,3.4,70,0.00,,,0.00,WUHU216HW,2013-06-27 15:17:00,
2013-06-27 08:22:00,72.4,61.7,30.07,ENE,68,0.9,2.9,69,0.00,,,0.00,WUHU216HW,2013-06-27 15:22:00,
2013-06-27 08:27:00,72.7,62.0,30.07,NNE,23,1.1,2.9,69,0.00,,,0.00,WUHU216HW,2013-06-27 15:27:00,
2013-06-27 08:32:00,73.1,61.5,30.06,NNE,23,2.7,2.9,67,0.00,,,0.00,WUHU216HW,2013-06-27 15:32:00,
2013-06-27 08:37:00,73.3,61.2,30.07,NNE,23,2.9,3.8,66,0.00,,,0.00,WUHU216HW,2013-06-27 15:37:00,
2013-06-27 08:42:00,73.6,62.0,30.07,NNE,23,1.8,3.8,67,0.00,,,0.00,WUHU216HW,2013-06-27 15:42:00,
2013-06-27 08:47:00,74.0,61.9,30.05,North,0,0.7,2.9,66,0.00,,,0.00,WUHU216HW,2013-06-27 15:47:00,
2013-06-27 08:52:00,74.5,62.4,30.07,North,0,0.7,4.5,66,0.00,,,0.00,WUHU216HW,2013-06-27 15:52:00,
2013-06-27 08:58:00,74.9,62.7,30.06,ENE,68,0.9,4.5,66,0.00,,,0.00,WUHU216HW,2013-06-27 15:58:00,
2013-06-27 09:03:00,75.4,62.8,30.07,ENE,68,1.1,2.7,65,0.00,,,0.00,WUHU216HW,2013-06-27 16:03:00,
2013-06-27 09:08:00,75.8,62.7,30.07,ENE,68,1.6,2.7,64,0.00,,,0.00,WUHU216HW,2013-06-27 16:08:00,
2013-06-27 09:13:00,76.0,62.5,30.07,East,90,2.0,2.0,63,0.00,,,0.00,WUHU216HW,2013-06-27 16:13:00,
2013-06-27 09:18:00,76.3,62.8,30.07,NNE,23,1.1,2.7,63,0.00,,,0.00,WUHU216HW,2013-06-27 16:18:00,
2013-06-27 09:23:00,76.7,62.2,30.07,NW,315,2.9,2.9,61,0.00,,,0.00,WUHU216HW,2013-06-27 16:23:00,
2013-06-27 09:28:00,76.9,62.4,30.07,North,0,2.0,4.3,61,0.00,,,0.00,WUHU216HW,2013-06-27 16:28:00,
2013-06-27 09:33:00,76.9,61.9,30.08,North,0,2.9,4.3,60,0.00,,,0.00,WUHU216HW,2013-06-27 16:33:00,
2013-06-27 09:38:00,77.0,62.1,30.07,North,0,4.0,4.3,60,0.00,,,0.00,WUHU216HW,2013-06-27 16:38:00,
2013-06-27 09:43:00,77.4,61.9,30.07,East,90,2.0,4.3,59,0.00,,,0.00,WUHU216HW,2013-06-27 16:43:00,
2013-06-27 09:48:00,77.9,62.5,30.07,ESE,113,2.5,3.4,59,0.00,,,0.00,WUHU216HW,2013-06-27 16:48:00,
2013-06-27 09:53:00,78.5,62.5,30.07,NNE,23,1.1,3.4,58,0.00,,,0.00,WUHU216HW,2013-06-27 16:53:00,
2013-06-27 09:58:00,78.7,62.6,30.06,East,90,2.5,5.4,58,0.00,,,0.00,WUHU216HW,2013-06-27 16:58:00,
2013-06-27 10:03:00,79.0,62.5,30.07,NNE,23,3.8,5.4,57,0.00,,,0.00,WUHU216HW,2013-06-27 17:03:00,
2013-06-27 10:09:00,79.6,62.5,30.07,SW,225,3.4,3.8,56,0.00,,,0.00,WUHU216HW,2013-06-27 17:09:00,
2013-06-27 10:14:00,80.1,62.5,30.07,NNW,338,3.4,4.3,55,0.00,,,0.00,WUHU216HW,2013-06-27 17:14:00,
2013-06-27 10:19:00,80.5,62.2,30.07,NE,45,2.2,4.3,54,0.00,,,0.00,WUHU216HW,2013-06-27 17:19:00,
2013-06-27 10:24:00,80.6,62.4,30.07,South,180,0.4,3.8,54,0.00,,,0.00,WUHU216HW,2013-06-27 17:24:00,
2013-06-27 10:29:00,80.8,62.0,30.07,NE,45,5.4,5.4,53,0.00,,,0.00,WUHU216HW,2013-06-27 17:29:00,
2013-06-27 10:34:00,81.0,62.2,30.07,NNE,23,1.1,5.4,53,0.00,,,0.00,WUHU216HW,2013-06-27 17:34:00,
2013-06-27 10:39:00,81.0,62.2,30.07,NE,45,3.8,3.8,53,0.00,,,0.00,WUHU216HW,2013-06-27 17:39:00,
2013-06-27 10:44:00,81.0,62.2,30.07,North,0,1.1,3.8,53,0.00,,,0.00,WUHU216HW,2013-06-27 17:44:00,
2013-06-27 10:49:00,81.4,62.6,30.07,NNW,338,0.4,2.5,53,0.00,,,0.00,WUHU216HW,2013-06-27 17:49:00,
2013-06-27 10:55:00,81.9,62.5,30.07,ESE,113,0.4,4.7,52,0.00,,,0.00,WUHU216HW,2013-06-27 17:55:00,
2013-06-27 11:00:00,82.3,62.3,30.07,NNE,23,3.4,4.7,51,0.00,,,0.00,WUHU216HW,2013-06-27 18:00:00,
2013-06-27 11:05:00,81.9,62.5,30.08,ENE,68,2.2,5.8,52,0.00,,,0.00,WUHU216HW,2013-06-27 18:05:00,
2013-06-27 11:10:00,81.7,61.8,30.07,NNE,23,5.4,5.8,51,0.00,,,0.00,WUHU216HW,2013-06-27 18:10:00,
2013-06-27 11:15:00,81.7,61.8,30.07,NNW,338,2.9,5.6,51,0.00,,,0.00,WUHU216HW,2013-06-27 18:15:00,
2013-06-27 11:20:00,82.1,62.1,30.07,East,90,3.6,4.7,51,0.00,,,0.00,WUHU216HW,2013-06-27 18:20:00,
2013-06-27 11:25:00,82.3,62.3,30.07,ENE,68,4.3,4.7,51,0.00,,,0.00,WUHU216HW,2013-06-27 18:25:00,
2013-06-27 11:30:00,82.6,62.1,30.07,NNE,23,3.4,4.3,50,0.00,,,0.00,WUHU216HW,2013-06-27 18:30:00,
2013-06-27 11:35:00,83.2,62.0,30.07,NE,45,4.0,4.5,49,0.00,,,0.00,WUHU216HW,2013-06-27 18:35:00,
2013-06-27 11:40:00,83.0,61.8,30.07,ENE,68,3.8,4.5,49,0.00,,,0.00,WUHU216HW,2013-06-27 18:40:00,
2013-06-27 11:45:00,83.0,61.8,30.07,NNE,23,1.3,3.8,49,0.00,,,0.00,WUHU216HW,2013-06-27 18:45:00,
2013-06-27 11:51:00,83.2,61.4,30.08,NNW,338,4.5,4.5,48,0.00,,,0.00,WUHU216HW,2013-06-27 18:51:00,
2013-06-27 11:56:00,83.2,62.0,30.07,North,0,1.1,4.5,49,0.00,,,0.00,WUHU216HW,2013-06-27 18:56:00,
2013-06-27 12:01:00,83.2,62.0,30.08,North,0,2.0,4.5,49,0.00,,,0.00,WUHU216HW,2013-06-27 19:01:00,
2013-06-27 12:06:00,83.2,61.4,30.07,NE,45,1.3,4.7,48,0.00,,,0.00,WUHU216HW,2013-06-27 19:06:00,
2013-06-27 12:11:00,83.2,61.4,30.08,NNW,338,6.0,6.0,48,0.00,,,0.00,WUHU216HW,2013-06-27 19:11:00,
2013-06-27 12:16:00,82.6,61.5,30.08,SW,225,0.7,6.0,49,0.00,,,0.00,WUHU216HW,2013-06-27 19:16:00,
2013-06-27 12:21:00,83.2,62.0,30.08,NE,45,1.8,5.6,49,0.00,,,0.00,WUHU216HW,2013-06-27 19:21:00,
2013-06-27 12:26:00,83.3,61.6,30.08,NE,45,1.1,5.1,48,0.00,,,0.00,WUHU216HW,2013-06-27 19:26:00,
2013-06-27 12:31:00,83.3,61.6,30.07,NNE,23,3.6,5.1,48,0.00,,,0.00,WUHU216HW,2013-06-27 19:31:00,
2013-06-27 12:36:00,83.5,61.7,30.07,North,0,2.0,4.5,48,0.00,,,0.00,WUHU216HW,2013-06-27 19:36:00,
2013-06-27 12:41:00,83.5,61.7,30.08,NNE,23,3.8,4.0,48,0.00,,,0.00,WUHU216HW,2013-06-27 19:41:00,
2013-06-27 12:46:00,83.7,61.9,30.08,NW,315,1.8,5.1,48,0.00,,,0.00,WUHU216HW,2013-06-27 19:46:00,
2013-06-27 12:51:00,83.9,61.5,30.08,NNW,338,1.1,5.1,47,0.00,,,0.00,WUHU216HW,2013-06-27 19:51:00,
2013-06-27 12:57:00,83.5,61.1,30.07,North,0,1.8,4.7,47,0.00,,,0.00,WUHU216HW,2013-06-27 19:57:00,
2013-06-27 13:02:00,83.9,61.5,30.08,NE,45,5.4,5.6,47,0.00,,,0.00,WUHU216HW,2013-06-27 20:02:00,
2013-06-27 13:07:00,84.1,61.0,30.08,NNE,23,2.5,5.6,46,0.00,,,0.00,WUHU216HW,2013-06-27 20:07:00,
2013-06-27 13:12:00,84.6,61.6,30.07,NNE,23,3.1,4.3,46,0.00,,,0.00,WUHU216HW,2013-06-27 20:12:00,
2013-06-27 13:17:00,85.0,61.8,30.08,WNW,293,0.4,4.3,46,0.00,,,0.00,WUHU216HW,2013-06-27 20:17:00,
2013-06-27 13:22:00,85.0,61.2,30.09,North,0,1.8,2.5,45,0.00,,,0.00,WUHU216HW,2013-06-27 20:22:00,
2013-06-27 13:27:00,84.6,60.9,30.08,WSW,248,1.8,2.2,45,0.00,,,0.00,WUHU216HW,2013-06-27 20:27:00,
2013-06-27 13:32:00,85.0,61.2,30.09,WSW,248,2.2,2.9,45,0.00,,,0.00,WUHU216HW,2013-06-27 20:32:00,
2013-06-27 13:37:00,85.1,60.8,30.08,NE,45,1.1,3.1,44,0.00,,,0.00,WUHU216HW,2013-06-27 20:37:00,
2013-06-27 13:42:00,84.8,61.0,30.08,NW,315,1.1,3.1,45,0.00,,,0.00,WUHU216HW,2013-06-27 20:42:00,
2013-06-27 13:47:00,85.0,60.6,30.08,ENE,68,2.0,2.5,44,0.00,,,0.00,WUHU216HW,2013-06-27 20:47:00,
2013-06-27 13:53:00,85.0,60.6,30.08,NNW,338,1.3,2.2,44,0.00,,,0.00,WUHU216HW,2013-06-27 20:53:00,
2013-06-27 13:58:00,84.8,60.4,30.07,WSW,248,0.7,2.2,44,0.00,,,0.00,WUHU216HW,2013-06-27 20:58:00,
2013-06-27 14:03:00,85.0,60.6,30.07,West,270,1.8,2.2,44,0.00,,,0.00,WUHU216HW,2013-06-27 21:03:00,
2013-06-27 14:08:00,85.3,60.3,30.08,West,270,0.4,2.2,43,0.00,,,0.00,WUHU216HW,2013-06-27 21:08:00,
2013-06-27 14:13:00,86.0,61.6,30.06,SSE,158,0.4,2.0,44,0.00,,,0.00,WUHU216HW,2013-06-27 21:13:00,
2013-06-27 14:18:00,86.0,60.9,30.08,WSW,248,1.3,2.5,43,0.00,,,0.00,WUHU216HW,2013-06-27 21:18:00,
2013-06-27 14:23:00,86.0,60.9,30.08,NNW,338,1.6,2.5,43,0.00,,,0.00,WUHU216HW,2013-06-27 21:23:00,
2013-06-27 14:28:00,86.0,60.9,30.07,WSW,248,0.9,3.1,43,0.00,,,0.00,WUHU216HW,2013-06-27 21:28:00,
2013-06-27 14:33:00,86.0,60.9,30.08,NE,45,1.1,3.1,43,0.00,,,0.00,WUHU216HW,2013-06-27 21:33:00,
2013-06-27 14:38:00,86.2,61.1,30.08,WNW,293,1.3,3.1,43,0.00,,,0.00,WUHU216HW,2013-06-27 21:38:00,
2013-06-27 14:44:00,85.9,59.5,30.07,North,0,1.8,3.4,41,0.00,,,0.00,WUHU216HW,2013-06-27 21:44:00,
2013-06-27 14:49:00,85.7,59.9,30.06,WSW,248,1.1,3.4,42,0.00,,,0.00,WUHU216HW,2013-06-27 21:49:00,
2013-06-27 14:54:00,85.7,59.3,30.08,NNW,338,2.0,2.5,41,0.00,,,0.00,WUHU216HW,2013-06-27 21:54:00,
2013-06-27 14:59:00,85.9,60.1,30.07,NE,45,2.2,2.2,42,0.00,,,0.00,WUHU216HW,2013-06-27 21:59:00,
2013-06-27 15:04:00,86.4,61.3,30.07,NNW,338,0.7,2.2,43,0.00,,,0.00,WUHU216HW,2013-06-27 22:04:00,
2013-06-27 15:10:00,86.9,61.1,30.07,NW,315,1.8,1.8,42,0.00,,,0.00,WUHU216HW,2013-06-27 22:10:00,
2013-06-27 15:15:00,86.9,60.5,30.07,NNW,338,0.4,2.0,41,0.00,,,0.00,WUHU216HW,2013-06-27 22:15:00,
2013-06-27 15:20:00,86.8,60.9,30.06,NE,45,1.8,2.0,42,0.00,,,0.00,WUHU216HW,2013-06-27 22:20:00,
2013-06-27 15:25:00,86.8,60.3,30.07,West,270,1.3,2.9,41,0.00,,,0.00,WUHU216HW,2013-06-27 22:25:00,
2013-06-27 15:30:00,86.0,60.3,30.07,SW,225,1.8,2.9,42,0.00,,,0.00,WUHU216HW,2013-06-27 22:30:00,
2013-06-27 15:36:00,86.0,60.3,30.07,West,270,1.8,2.7,42,0.00,,,0.00,WUHU216HW,2013-06-27 22:36:00,
2013-06-27 15:41:00,86.0,60.3,30.07,SE,135,1.8,2.7,42,0.00,,,0.00,WUHU216HW,2013-06-27 22:41:00,
2013-06-27 15:46:00,86.0,60.3,30.06,NNW,338,2.2,2.2,42,0.00,,,0.00,WUHU216HW,2013-06-27 22:46:00,
2013-06-27 15:51:00,86.2,61.1,30.07,West,270,2.5,2.5,43,0.00,,,0.00,WUHU216HW,2013-06-27 22:51:00,
2013-06-27 15:56:00,86.4,60.7,30.07,NE,45,0.4,2.5,42,0.00,,,0.00,WUHU216HW,2013-06-27 22:56:00,
2013-06-27 16:01:00,86.2,59.9,30.06,North,0,0.9,3.8,41,0.00,,,0.00,WUHU216HW,2013-06-27 23:01:00,
2013-06-27 16:06:00,85.7,58.7,30.07,West,270,1.1,3.8,40,0.00,,,0.00,WUHU216HW,2013-06-27 23:06:00,
2013-06-27 16:11:00,85.3,59.1,30.07,West,270,1.8,2.5,41,0.00,,,0.00,WUHU216HW,2013-06-27 23:11:00,
2013-06-27 16:17:00,85.1,58.9,30.07,North,0,0.7,3.6,41,0.00,,,0.00,WUHU216HW,2013-06-27 23:17:00,
2013-06-27 16:22:00,85.0,59.3,30.07,East,90,0.4,3.6,42,0.00,,,0.00,WUHU216HW,2013-06-27 23:22:00,
2013-06-27 16:27:00,84.8,59.1,30.06,SSE,158,0.7,2.5,42,0.00,,,0.00,WUHU216HW,2013-06-27 23:27:00,
2013-06-27 16:32:00,84.6,59.1,30.07,NNW,338,0.7,2.5,42,0.00,,,0.00,WUHU216HW,2013-06-27 23:32:00,
2013-06-27 16:37:00,84.6,59.1,30.07,NNE,23,1.8,2.5,42,0.00,,,0.00,WUHU216HW,2013-06-27 23:37:00,
2013-06-27 16:42:00,84.6,59.1,30.06,NNW,338,1.8,1.8,42,0.00,,,0.00,WUHU216HW,2013-06-27 23:42:00,
2013-06-27 16:47:00,84.6,58.4,30.07,South,180,3.1,3.1,41,0.00,,,0.00,WUHU216HW,2013-06-27 23:47:00,
2013-06-27 16:52:00,84.1,57.9,30.06,WNW,293,1.1,3.1,41,0.00,,,0.00,WUHU216HW,2013-06-27 23:52:00,
2013-06-27 16:58:00,83.9,57.7,30.07,NE,45,1.6,2.7,41,0.00,,,0.00,WUHU216HW,2013-06-27 23:58:00,
2013-06-27 17:03:00,83.3,56.6,30.07,NW,315,1.8,2.7,40,0.00,,,0.00,WUHU216HW,2013-06-28 00:03:00,
2013-06-27 17:08:00,83.0,56.3,30.05,North,0,2.5,2.5,40,0.00,,,0.00,WUHU216HW,2013-06-28 00:08:00,
2013-06-27 17:13:00,82.8,56.7,30.06,ESE,113,1.3,2.5,41,0.00,,,0.00,WUHU216HW,2013-06-28 00:13:00,
2013-06-27 17:18:00,82.8,57.3,30.06,NNE,23,1.1,2.0,42,0.00,,,0.00,WUHU216HW,2013-06-28 00:18:00,
2013-06-27 17:23:00,83.2,57.7,30.06,East,90,1.1,2.7,42,0.00,,,0.00,WUHU216HW,2013-06-28 00:23:00,
2013-06-27 17:28:00,83.3,57.9,30.06,ESE,113,0.9,2.7,42,0.00,,,0.00,WUHU216HW,2013-06-28 00:28:00,
2013-06-27 17:33:00,83.2,57.7,30.05,NNE,23,1.1,4.7,42,0.00,,,0.00,WUHU216HW,2013-06-28 00:33:00,
2013-06-27 17:38:00,83.2,57.1,30.06,SW,225,0.2,4.7,41,0.00,,,0.00,WUHU216HW,2013-06-28 00:38:00,
2013-06-27 17:43:00,82.8,56.7,30.06,West,270,0.2,2.2,41,0.00,,,0.00,WUHU216HW,2013-06-28 00:43:00,
2013-06-27 17:48:00,82.4,56.4,30.08,SW,225,0.7,2.5,41,0.00,,,0.00,WUHU216HW,2013-06-28 00:48:00,
2013-06-27 17:54:00,82.4,57.1,30.08,NE,45,1.1,2.5,42,0.00,,,0.00,WUHU216HW,2013-06-28 00:54:00,
2013-06-27 17:59:00,82.4,57.1,30.09,SE,135,1.3,3.4,42,0.00,,,0.00,WUHU216HW,2013-06-28 00:59:00,
2013-06-27 18:04:00,82.4,57.1,30.08,NNW,338,0.4,1.8,42,0.00,,,0.00,WUHU216HW,2013-06-28 01:04:00,
2013-06-27 18:09:00,82.6,57.8,30.09,NE,45,0.4,1.6,43,0.00,,,0.00,WUHU216HW,2013-06-28 01:09:00,
2013-06-27 18:15:00,83.2,57.7,30.09,North,0,0.2,1.3,42,0.00,,,0.00,WUHU216HW,2013-06-28 01:15:00,
2013-06-27 18:20:00,83.2,57.7,30.08,North,0,2.5,2.5,42,0.00,,,0.00,WUHU216HW,2013-06-28 01:20:00,
2013-06-27 18:25:00,82.6,57.2,30.09,NW,315,1.3,2.5,42,0.00,,,0.00,WUHU216HW,2013-06-28 01:25:00,
2013-06-27 18:30:00,82.4,57.1,30.10,West,270,0.9,1.3,42,0.00,,,0.00,WUHU216HW,2013-06-28 01:30:00,
2013-06-27 18:35:00,82.4,58.9,30.09,WNW,293,1.1,1.6,45,0.00,,,0.00,WUHU216HW,2013-06-28 01:35:00,
2013-06-27 18:40:00,82.6,58.4,30.08,NW,315,1.6,1.6,44,0.00,,,0.00,WUHU216HW,2013-06-28 01:40:00,
2013-06-27 18:45:00,82.6,58.4,30.08,WSW,248,3.1,3.1,44,0.00,,,0.00,WUHU216HW,2013-06-28 01:45:00,
2013-06-27 18:51:00,82.4,58.2,30.08,West,270,0.7,3.1,44,0.00,,,0.00,WUHU216HW,2013-06-28 01:51:00,
2013-06-27 18:56:00,82.1,57.3,30.07,West,270,1.1,2.5,43,0.00,,,0.00,WUHU216HW,2013-06-28 01:56:00,
2013-06-27 19:01:00,81.7,57.6,30.07,WSW,248,2.7,3.6,44,0.00,,,0.00,WUHU216HW,2013-06-28 02:01:00,
2013-06-27 19:06:00,81.4,57.2,30.07,WSW,248,1.8,3.6,44,0.00,,,0.00,WUHU216HW,2013-06-28 02:06:00,
2013-06-27 19:11:00,80.6,57.2,30.08,WSW,248,1.8,4.0,45,0.00,,,0.00,WUHU216HW,2013-06-28 02:11:00,
2013-06-27 19:16:00,79.9,56.6,30.07,West,270,2.0,4.0,45,0.00,,,0.00,WUHU216HW,2013-06-28 02:16:00,
2013-06-27 19:21:00,79.6,56.3,30.08,WSW,248,2.2,4.0,45,0.00,,,0.00,WUHU216HW,2013-06-28 02:21:00,
2013-06-27 19:26:00,79.4,56.7,30.07,West,270,3.1,3.4,46,0.00,,,0.00,WUHU216HW,2013-06-28 02:26:00,
2013-06-27 19:31:00,79.0,56.4,30.08,West,270,4.0,5.6,46,0.00,,,0.00,WUHU216HW,2013-06-28 02:31:00,
2013-06-27 19:37:00,78.7,56.7,30.07,WSW,248,1.8,5.6,47,0.00,,,0.00,WUHU216HW,2013-06-28 02:37:00,
2013-06-27 19:42:00,78.3,56.3,30.08,West,270,3.6,4.3,47,0.00,,,0.00,WUHU216HW,2013-06-28 02:42:00,
2013-06-27 19:47:00,77.8,55.9,30.07,WSW,248,3.4,4.3,47,0.00,,,0.00,WUHU216HW,2013-06-28 02:47:00,
2013-06-27 19:52:00,77.4,55.5,30.07,West,270,1.1,4.0,47,0.00,,,0.00,WUHU216HW,2013-06-28 02:52:00,
2013-06-27 19:57:00,77.2,56.0,30.07,West,270,2.5,4.0,48,0.00,,,0.00,WUHU216HW,2013-06-28 02:57:00,
2013-06-27 20:02:00,77.0,56.4,30.07,West,270,3.4,4.0,49,0.00,,,0.00,WUHU216HW,2013-06-28 03:02:00,
2013-06-27 20:07:00,77.0,56.4,30.09,West,270,3.4,4.0,49,0.00,,,0.00,WUHU216HW,2013-06-28 03:07:00,
2013-06-27 20:12:00,76.9,56.3,30.07,WSW,248,2.7,4.0,49,0.00,,,0.00,WUHU216HW,2013-06-28 03:12:00,
2013-06-27 20:18:00,76.7,56.2,30.07,West,270,3.4,4.3,49,0.00,,,0.00,WUHU216HW,2013-06-28 03:18:00,
2013-06-27 20:23:00,76.5,56.0,30.08,WSW,248,3.4,4.3,49,0.00,,,0.00,WUHU216HW,2013-06-28 03:23:00,
2013-06-27 20:28:00,76.3,55.8,30.08,West,270,2.5,4.0,49,0.00,,,0.00,WUHU216HW,2013-06-28 03:28:00,
2013-06-27 20:33:00,76.1,55.6,30.07,WSW,248,3.6,4.0,49,0.00,,,0.00,WUHU216HW,2013-06-28 03:33:00,
2013-06-27 20:38:00,76.0,55.4,30.08,WSW,248,2.9,4.0,49,0.00,,,0.00,WUHU216HW,2013-06-28 03:38:00,
2013-06-27 20:43:00,76.3,56.4,30.07,WSW,248,3.4,3.4,50,0.00,,,0.00,WUHU216HW,2013-06-28 03:43:00,
2013-06-27 20:49:00,76.3,55.8,30.07,WSW,248,3.4,3.4,49,0.00,,,0.00,WUHU216HW,2013-06-28 03:49:00,
2013-06-27 20:54:00,76.5,56.0,30.07,WSW,248,2.7,3.4,49,0.00,,,0.00,WUHU216HW,2013-06-28 03:54:00,
2013-06-27 20:59:00,76.7,56.2,30.08,West,270,2.7,2.7,49,0.00,,,0.00,WUHU216HW,2013-06-28 03:59:00,
2013-06-27 21:01:00,76.7,56.2,30.08,West,270,2.7,2.7,49,0.00,,,0.00,WUHU216HW,2013-06-28 04:01:00,
2013-06-27 21:02:00,76.7,55.5,30.07,WSW,248,2.0,2.7,48,0.00,,,0.00,WUHU216HW,2013-06-28 04:02:00,
2013-06-27 21:07:00,76.3,55.2,30.06,West,270,2.0,2.7,48,0.00,,,0.00,WUHU216HW,2013-06-28 04:07:00,
2013-06-27 21:12:00,76.1,55.6,30.04,West,270,2.5,3.6,49,0.00,,,0.00,WUHU216HW,2013-06-28 04:12:00,
2013-06-27 21:17:00,76.0,55.4,30.05,WSW,248,2.5,3.6,49,0.00,,,0.00,WUHU216HW,2013-06-28 04:17:00,
2013-06-27 21:22:00,75.8,55.4,30.04,WSW,248,2.5,3.4,49,0.00,,,0.00,WUHU216HW,2013-06-28 04:22:00,
2013-06-27 21:27:00,75.8,55.9,30.05,WSW,248,2.7,3.4,50,0.00,,,0.00,WUHU216HW,2013-06-28 04:27:00,
2013-06-27 21:32:00,76.0,56.1,30.04,WSW,248,3.4,3.4,50,0.00,,,0.00,WUHU216HW,2013-06-28 04:32:00,
2013-06-27 21:37:00,76.0,56.1,30.05,WSW,248,3.1,3.4,50,0.00,,,0.00,WUHU216HW,2013-06-28 04:37:00,
2013-06-27 21:42:00,76.1,56.3,30.05,WSW,248,2.9,3.1,50,0.00,,,0.00,WUHU216HW,2013-06-28 04:42:00,
2013-06-27 21:48:00,76.1,56.3,30.05,WSW,248,3.4,3.8,50,0.00,,,0.00,WUHU216HW,2013-06-28 04:48:00,
2013-06-27 21:53:00,76.3,56.4,30.05,WSW,248,3.1,3.8,50,0.00,,,0.00,WUHU216HW,2013-06-28 04:53:00,
2013-06-27 21:58:00,76.3,56.4,30.05,SW,225,2.0,3.4,50,0.00,,,0.00,WUHU216HW,2013-06-28 04:58:00,
2013-06-27 22:03:00,76.3,56.4,30.05,SW,225,1.8,3.1,50,0.00,,,0.00,WUHU216HW,2013-06-28 05:03:00,
2013-06-27 22:08:00,76.3,56.4,30.05,SW,225,1.8,1.8,50,0.00,,,0.00,WUHU216HW,2013-06-28 05:08:00,
2013-06-27 22:13:00,76.1,56.3,30.06,SW,225,1.8,2.5,50,0.00,,,0.00,WUHU216HW,2013-06-28 05:13:00,
2013-06-27 22:18:00,76.1,56.3,30.06,SW,225,1.3,2.5,50,0.00,,,0.00,WUHU216HW,2013-06-28 05:18:00,
2013-06-27 22:23:00,76.0,56.1,30.05,SW,225,1.8,1.8,50,0.00,,,0.00,WUHU216HW,2013-06-28 05:23:00,
2013-06-27 22:28:00,76.0,56.1,30.05,SW,225,1.8,1.8,50,0.00,,,0.00,WUHU216HW,2013-06-28 05:28:00,
2013-06-27 22:34:00,76.1,56.3,30.06,SW,225,1.6,1.8,50,0.00,,,0.00,WUHU216HW,2013-06-28 05:34:00,
2013-06-27 22:39:00,76.1,56.3,30.06,SW,225,1.8,1.8,50,0.00,,,0.00,WUHU216HW,2013-06-28 05:39:00,
2013-06-27 22:44:00,76.1,56.3,30.06,SW,225,1.6,1.8,50,0.00,,,0.00,WUHU216HW,2013-06-28 05:44:00,
2013-06-27 22:49:00,76.3,56.4,30.05,SW,225,1.3,1.8,50,0.00,,,0.00,WUHU216HW,2013-06-28 05:49:00,
2013-06-27 22:54:00,76.3,56.4,30.06,SW,225,1.6,1.6,50,0.00,,,0.00,WUHU216HW,2013-06-28 05:54:00,
2013-06-27 22:59:00,76.5,56.6,30.05,SW,225,1.8,1.8,50,0.00,,,0.00,WUHU216HW,2013-06-28 05:59:00,
2013-06-27 23:04:00,76.5,56.6,30.06,SW,225,1.1,1.8,50,0.00,,,0.00,WUHU216HW,2013-06-28 06:04:00,
2013-06-27 23:09:00,76.5,56.0,30.05,SW,225,1.3,1.3,49,0.00,,,0.00,WUHU216HW,2013-06-28 06:09:00,
2013-06-27 23:15:00,76.7,56.2,30.06,SW,225,0.9,1.3,49,0.00,,,0.00,WUHU216HW,2013-06-28 06:15:00,
2013-06-27 23:20:00,76.7,56.2,30.05,SW,225,0.4,1.3,49,0.00,,,0.00,WUHU216HW,2013-06-28 06:20:00,
2013-06-27 23:25:00,76.7,56.2,30.05,SW,225,0.4,0.9,49,0.00,,,0.00,WUHU216HW,2013-06-28 06:25:00,
2013-06-27 23:30:00,76.3,55.8,30.06,WSW,248,0.9,1.1,49,0.00,,,0.00,WUHU216HW,2013-06-28 06:30:00,
2013-06-27 23:35:00,76.3,56.4,30.05,WSW,248,0.7,1.3,50,0.00,,,0.00,WUHU216HW,2013-06-28 06:35:00,
2013-06-27 23:40:00,76.3,56.4,30.05,SW,225,0.7,1.3,50,0.00,,,0.00,WUHU216HW,2013-06-28 06:40:00,
2013-06-27 23:45:00,76.1,56.3,30.06,SW,225,1.1,1.1,50,0.00,,,0.00,WUHU216HW,2013-06-28 06:45:00,
2013-06-27 23:50:00,76.1,56.3,30.05,SW,225,1.3,1.3,50,0.00,,,0.00,WUHU216HW,2013-06-28 06:50:00,
2013-06-27 23:55:00,76.1,56.3,30.05,SW,225,1.3,1.3,50,0.00,,,0.00,WUHU216HW,2013-06-28 06:55:00,